STARLINK-1132, 45044

Orbit data source: Space-Track

STARLINK-1132, 45044 is a payload satellite owned by SpaceX/Seattle (US) in LEO that was launched on Wed, 29 Jan 2020 UTC via an FALCON 9 launch vehicle from the Air Force Eastern Test Range (AFETR). Payload-class satellites include a variety of spacecraft equipped with specific instruments for various scientific and technological missions. These include communications satellites like Starlink; space stations such as the ISS; scientific satellites like the Hubble; Earth observation satellites from companies like Planet Labs, Umbra, and HawkEye 360; GPS; miniature CubeSats for education and research; and military/defense satellites.

Loading next visibility...
Identifier
45044, 2020-006A
Orbit
LEO
Last TLE update
1 day ago
Origin
Manufacturer
SpaceX/Seattle
Mission
Operational Commercial Communications
Bus & Motor
STARLINK, Unknown motor
Mass
260 kg wet, ~248 kg dry
Launch date (UTC)
2020-01-29 (5 years ago)
Launch vehicle
FALCON 9
Launch site
Air Force Eastern Test Range (AFETR)
Object type
Payload
Rocket body
Debris
Shape & HBR
Box + 1 Pan, 8.86 m
Radar Cross Section
13.562 m², Large (>1 m²)

Expand to show TLE details & history

TLE from 1 day ago
0 STARLINK-1132
1 45044U 20006A   25191.48714413  .00001646  00000-0  12938-3 0  9998
2 45044  53.0552 273.9083 0001199  89.5762 270.5365 15.06390880300234
Epoch: 2025-07-10T11:41Z
TLE epoch observation values (Epoch: 2025-07-10T11:41:29.252Z)
Latitude
0.00001°
Longitude
169.88371°
Altitude
548.111 km
Speed
7.589 km/s
True Right ascension
18h 15m 37s
True Declination
0° 00' 00"
Sunlit
Object was in full shadow at epoch
Visualization orbit readout
Latitude
-40.65281°
Longitude
125.49999°
Altitude
561.355 km
Speed
7.58 km/s
Apparent Right ascension
13h 32m 30s
Apparent Declination
-43° 31' 20"
Sunlit
Object is in full shadow
Visualization observer readout
Local Sidereal Time
23:38:10
Azimuth
250.977° W
Elevation
-68.472°
Doppler factor
1
Orbital elements
Apogee altitude
548.341 km
Perigee altitude
546.68 km
Semi-major axis
6,925.647 km
Eccentricity
0.00012
Inclination
53.0552°
RAAN
273.9083°
Arg. of periapsis
89.5762°
True anomaly
Unknown
Mean anomaly
270.5365°
Eccentric anomaly
Unknown
Mean motion
3.76576 °/min
Orbital period
95.6 mins
BSTAR
0.00012938
Loading maneuver chart data...
Loading SW <> Apogee altitude chart data...

STARLINK-1132 Visibility forecast

Observer location: undefined°, undefined°

Span
Click to sort rows by Start time (UTC) header in descending order
Start Az.
Max El. time (UTC)
Max El. Az.
Max El.
End time (UTC)
End Az.
5 mins2025-07-11 13:38:09.063Z343.205° N2025-07-11 13:40:09.063Z24.577° NE23.384°2025-07-11 13:43:09.063Z78.838° E
6 mins2025-07-11 15:17:09.063Z300.151° NW2025-07-11 15:20:09.063Z208.112° SW41.217°2025-07-11 15:23:09.063Z145.449° SSE
5 mins2025-07-12 06:51:09.063Z165.876° S2025-07-12 06:53:09.063Z122.877° SE22.409°2025-07-12 06:56:09.063Z75.09° E
5 mins2025-07-12 08:30:09.063Z264.051° W2025-07-12 08:32:09.063Z323.928° NNW36.359°2025-07-12 08:35:09.063Z36.005° NE
|